GW1498 Weather Reports


Display with metric or nautical units.
time (UTC)temp
F
wind
direction
speed
MPH
gust
MPH
rain 1hr
in
rain 24hr
in
rain mn
in
humidity
%
barometer
mb
20260510015740 58 0 0.0 5.0 0.00 0.00 0.00 64 1012.1
20260510015143 58 0 0.0 5.0 0.00 0.00 0.00 64 1012.1
20260510014511 58 66 2.0 5.0 0.00 0.00 0.00 63 1012.1
20260510013946 58 66 2.0 5.0 0.00 0.00 0.00 63 1012.1
20260510012725 58 41 2.0 5.0 0.00 0.00 0.00 63 1011.8
20260510012131 58 41 2.0 5.0 0.00 0.00 0.00 63 1011.8
20260510011556 58 41 2.0 5.0 0.00 0.00 0.00 63 1011.8
20260510010951 59 146 3.0 4.0 0.00 0.00 0.00 63 1011.5
20260510010348 59 146 3.0 4.0 0.00 0.00 0.00 63 1011.5
20260510005143 59 74 1.0 4.0 0.00 0.00 0.00 63 1010.8
20260510004550 59 74 1.0 4.0 0.00 0.00 0.00 63 1010.8
20260510003307 59 45 2.0 5.0 0.00 0.00 0.00 62 1010.8
20260510001226 60 32 1.0 6.0 0.00 0.00 0.00 61 1010.8
20260510000613 60 32 1.0 6.0 0.00 0.00 0.00 61 1010.8
20260509235444 60 99 2.0 4.0 0.00 0.00 0.00 60 1010.4
20260509234822 60 99 2.0 4.0 0.00 0.00 0.00 60 1010.4
20260509234250 60 0 0.0 6.0 0.00 0.00 0.00 59 1010.4
20260509233643 60 0 0.0 6.0 0.00 0.00 0.00 59 1010.4
20260509233013 61 166 3.0 3.0 0.00 0.00 0.00 60 1010.4
20260509232435 61 166 3.0 3.0 0.00 0.00 0.00 60 1010.4
20260509231852 61 166 3.0 3.0 0.00 0.00 0.00 60 1010.4
20260509231230 61 203 2.0 9.0 0.00 0.00 0.00 59 1010.8
20260509230613 61 203 2.0 9.0 0.00 0.00 0.00 59 1010.8
20260509230052 61 203 2.0 9.0 0.00 0.00 0.00 59 1010.8
20260509225413 62 177 8.0 8.0 0.00 0.00 0.00 57 1010.8
20260509224809 62 177 8.0 8.0 0.00 0.00 0.00 57 1010.8
20260509224244 62 29 4.0 8.0 0.00 0.00 0.00 57 1010.8
20260509223611 62 29 4.0 8.0 0.00 0.00 0.00 57 1010.8
20260509223041 62 29 4.0 8.0 0.00 0.00 0.00 57 1010.8
20260509222426 62 269 2.0 8.0 0.00 0.00 0.00 57 1010.8
20260509221241 62 143 1.0 4.0 0.00 0.00 0.00 59 1010.8
20260509220647 62 143 1.0 4.0 0.00 0.00 0.00 59 1010.8
20260509220045 62 143 1.0 4.0 0.00 0.00 0.00 59 1010.8
20260509215432 62 344 2.0 5.0 0.00 0.00 0.00 61 1010.8
20260509214832 62 344 2.0 5.0 0.00 0.00 0.00 61 1010.8
20260509213334 62 314 1.0 4.0 0.00 0.00 0.00 57 1010.8
20260509212738 63 3 2.0 3.0 0.00 0.00 0.00 58 1010.4
20260509212145 63 3 2.0 3.0 0.00 0.00 0.00 58 1010.4
20260509211542 63 3 2.0 3.0 0.00 0.00 0.00 58 1010.4
20260509210931 63 35 2.0 14.0 0.00 0.00 0.00 53 1010.1
20260509210318 63 35 2.0 14.0 0.00 0.00 0.00 53 1010.1
20260509205444 63 307 1.0 6.0 0.00 0.00 0.00 56 1010.4
20260509204825 63 307 1.0 6.0 0.00 0.00 0.00 56 1010.4
20260509204228 62 313 2.0 3.0 0.00 0.00 0.00 55 1010.1
20260509203647 62 313 2.0 3.0 0.00 0.00 0.00 55 1010.1
20260509203012 62 316 3.0 8.0 0.00 0.00 0.00 54 1010.1
20260509201823 62 316 3.0 8.0 0.00 0.00 0.00 54 1010.1
20260509200939 64 324 2.0 6.0 0.00 0.00 0.00 51 1010.1
20260509200309 64 324 2.0 6.0 0.00 0.00 0.00 51 1010.1
20260509195415 64 0 0.0 8.0 0.00 0.00 0.00 52 1010.1
20260509194841 64 0 0.0 8.0 0.00 0.00 0.00 52 1010.1
20260509194249 64 22 5.0 6.0 0.00 0.00 0.00 50 1010.1
20260509193009 63 307 1.0 6.0 0.00 0.00 0.00 50 1010.4
20260509192410 63 307 1.0 6.0 0.00 0.00 0.00 50 1010.4
20260509191840 63 307 1.0 6.0 0.00 0.00 0.00 50 1010.4
20260509190313 63 27 2.0 11.0 0.00 0.00 0.00 47 1010.1
20260509185409 64 182 1.0 13.0 0.00 0.00 0.00 50 1010.1
20260509184824 64 182 1.0 13.0 0.00 0.00 0.00 50 1010.1
20260509183936 63 2 3.0 10.0 0.00 0.00 0.00 52 1010.1
20260509183343 63 2 3.0 10.0 0.00 0.00 0.00 52 1010.1
20260509181838 62 151 4.0 11.0 0.00 0.00 0.00 54 1010.1
20260509180628 62 0 0.0 9.0 0.00 0.00 0.00 54 1010.1
20260509175453 61 145 7.0 13.0 0.00 0.00 0.00 54 1010.1
20260509174808 61 145 7.0 13.0 0.00 0.00 0.00 54 1010.1
20260509173310 62 141 3.0 18.0 0.00 0.00 0.00 54 1010.4
20260509172726 62 116 4.0 13.0 0.00 0.00 0.00 53 1010.4
20260509171510 60 162 2.0 10.0 0.00 0.00 0.00 56 1010.8
20260509170921 60 162 2.0 10.0 0.00 0.00 0.00 56 1010.8
20260509170323 60 162 2.0 10.0 0.00 0.00 0.00 56 1010.8
20260509165443 59 99 2.0 8.0 0.00 0.00 0.00 59 1010.8
20260509164828 59 99 2.0 8.0 0.00 0.00 0.00 59 1010.8
20260509163934 58 83 2.0 7.0 0.00 0.00 0.00 57 1010.8
20260509162115 58 0 0.0 4.0 0.00 0.00 0.00 58 1010.8
20260509161540 58 0 0.0 4.0 0.00 0.00 0.00 58 1010.8
20260509160930 57 167 1.0 4.0 0.00 0.00 0.00 60 1010.8
20260509160345 57 167 1.0 4.0 0.00 0.00 0.00 60 1010.8
20260509155420 56 0 0.0 4.0 0.00 0.00 0.00 60 1010.8
20260509153940 57 354 3.0 4.0 0.00 0.00 0.00 60 1011.1
20260509153324 57 354 3.0 4.0 0.00 0.00 0.00 60 1011.1
20260509152127 56 313 1.0 3.0 0.00 0.00 0.00 59 1011.1
20260509150915 57 357 1.0 3.0 0.00 0.00 0.00 58 1011.5
20260509150315 57 357 1.0 3.0 0.00 0.00 0.00 58 1011.5
20260509144832 58 359 2.0 3.0 0.00 0.00 0.00 56 1011.1
20260509144224 58 0 0.0 2.0 0.00 0.00 0.00 58 1010.8
20260509143636 58 0 0.0 2.0 0.00 0.00 0.00 58 1010.8
20260509143012 56 326 1.0 2.0 0.00 0.00 0.00 64 1010.8
20260509141828 56 326 1.0 2.0 0.00 0.00 0.00 64 1010.8
20260509140924 55 0 0.0 3.0 0.00 0.00 0.00 67 1010.8
20260509140344 55 0 0.0 3.0 0.00 0.00 0.00 67 1010.8
20260509135710 54 22 1.0 3.0 0.00 0.00 0.00 66 1010.8
20260509135112 54 22 1.0 3.0 0.00 0.00 0.00 66 1010.8
20260509134545 54 22 1.0 3.0 0.00 0.00 0.00 66 1010.8
20260509133914 54 311 1.0 2.0 0.00 0.00 0.00 66 1010.8
20260509132743 53 340 2.0 2.0 0.00 0.00 0.00 66 1011.1
20260509132132 53 340 2.0 2.0 0.00 0.00 0.00 66 1011.1
20260509131511 53 284 1.0 2.0 0.00 0.00 0.00 67 1010.8
20260509130917 53 284 1.0 2.0 0.00 0.00 0.00 67 1010.8
20260509130311 53 284 1.0 2.0 0.00 0.00 0.00 67 1010.8
20260509125721 52 0 0.0 2.0 0.00 0.00 0.00 68 1010.8
20260509125123 52 0 0.0 2.0 0.00 0.00 0.00 68 1010.8
20260509123935 52 0 0.0 2.0 0.00 0.00 0.00 69 1010.8
20260509123351 52 0 0.0 2.0 0.00 0.00 0.00 69 1010.8
20260509122746 51 190 1.0 3.0 0.00 0.00 0.00 69 1010.8
20260509122142 51 190 1.0 3.0 0.00 0.00 0.00 69 1010.8
20260509121510 50 0 0.0 4.0 0.00 0.00 0.00 68 1011.1
20260509120914 50 0 0.0 4.0 0.00 0.00 0.00 68 1011.1
20260509120320 50 0 0.0 4.0 0.00 0.00 0.00 68 1011.1
20260509114814 50 0 0.0 1.0 0.00 0.00 0.00 70 1011.1
20260509114227 50 0 0.0 2.0 0.00 0.00 0.00 69 1011.1
20260509113623 50 0 0.0 2.0 0.00 0.00 0.00 69 1011.1
20260509113044 50 0 0.0 2.0 0.00 0.00 0.00 69 1011.1
20260509112418 50 0 0.0 1.0 0.00 0.00 0.00 69 1011.1
20260509111819 50 0 0.0 1.0 0.00 0.00 0.00 69 1011.1
20260509110934 50 0 0.0 0.0 0.00 0.00 0.00 67 1011.1
20260509110313 50 0 0.0 0.0 0.00 0.00 0.00 67 1011.1
20260509104545 50 0 0.0 0.0 0.00 0.00 0.00 67 1011.1
20260509103940 50 0 0.0 0.0 0.00 0.00 0.00 65 1010.8
20260509103313 50 0 0.0 0.0 0.00 0.00 0.00 65 1010.8
20260509101839 50 0 0.0 2.0 0.00 0.00 0.00 65 1011.1
20260509100614 51 355 3.0 4.0 0.00 0.00 0.00 63 1011.1
20260509100011 53 139 2.0 4.0 0.00 0.00 0.00 56 1010.8
20260509095411 53 139 2.0 4.0 0.00 0.00 0.00 56 1010.8
20260509094820 53 139 2.0 4.0 0.00 0.00 0.00 56 1010.8
20260509093330 53 115 1.0 7.0 0.00 0.00 0.00 55 1010.8
20260509092416 53 157 1.0 7.0 0.00 0.00 0.00 55 1011.1
20260509091227 53 101 2.0 6.0 0.00 0.00 0.00 55 1011.1
20260509090613 53 101 2.0 6.0 0.00 0.00 0.00 55 1011.1
20260509090052 53 101 2.0 6.0 0.00 0.00 0.00 55 1011.1
20260509085421 53 107 2.0 7.0 0.00 0.00 0.00 55 1011.1
20260509084826 53 107 2.0 7.0 0.00 0.00 0.00 55 1011.1
20260509083918 53 102 3.0 8.0 0.00 0.00 0.00 55 1011.1
20260509083337 53 102 3.0 8.0 0.00 0.00 0.00 55 1011.1
20260509082747 53 133 4.0 7.0 0.00 0.00 0.00 54 1011.5
20260509080323 53 103 3.0 8.0 0.00 0.00 0.00 53 1011.5
20260509075754 53 129 3.0 8.0 0.00 0.00 0.00 53 1011.1
20260509075135 53 129 3.0 8.0 0.00 0.00 0.00 53 1011.1
20260509073323 53 198 3.0 9.0 0.00 0.00 0.00 53 1011.5
20260509072411 53 122 6.0 8.0 0.00 0.00 0.00 54 1011.1
20260509071817 53 122 6.0 8.0 0.00 0.00 0.00 54 1011.1
20260509071210 53 125 1.0 4.0 0.00 0.00 0.00 55 1011.5
20260509070615 53 125 1.0 4.0 0.00 0.00 0.00 55 1011.5
20260509070051 53 125 1.0 4.0 0.00 0.00 0.00 55 1011.5
20260509065434 53 112 1.0 5.0 0.00 0.00 0.00 53 1011.5
20260509064828 53 112 1.0 5.0 0.00 0.00 0.00 53 1011.5
20260509063913 53 76 1.0 4.0 0.00 0.00 0.00 54 1011.5
20260509063311 53 76 1.0 4.0 0.00 0.00 0.00 54 1011.5
20260509062719 53 117 2.0 4.0 0.00 0.00 0.00 54 1011.5
20260509062128 53 117 2.0 4.0 0.00 0.00 0.00 54 1011.5
20260509060912 54 0 0.0 2.0 0.00 0.00 0.00 53 1011.8
20260509060335 54 0 0.0 2.0 0.00 0.00 0.00 53 1011.8
20260509054513 55 0 0.0 1.0 0.00 0.00 0.00 49 1012.1
20260509053935 55 0 0.0 1.0 0.00 0.00 0.00 49 1012.1
20260509053346 55 0 0.0 1.0 0.00 0.00 0.00 49 1012.1
20260509052412 55 0 0.0 1.0 0.00 0.00 0.00 50 1012.1
20260509051851 55 0 0.0 1.0 0.00 0.00 0.00 50 1012.1
20260509050939 56 151 1.0 3.0 0.00 0.00 0.00 48 1012.1
20260509045724 56 0 0.0 2.0 0.00 0.00 0.00 47 1012.1
20260509045135 56 0 0.0 2.0 0.00 0.00 0.00 47 1012.1
20260509044542 56 0 0.0 2.0 0.00 0.00 0.00 47 1012.1
20260509043947 56 0 0.0 2.0 0.00 0.00 0.00 48 1012.1
20260509043336 56 0 0.0 2.0 0.00 0.00 0.00 48 1012.1
20260509042425 56 0 0.0 3.0 0.00 0.00 0.00 46 1012.5
20260509041838 56 0 0.0 3.0 0.00 0.00 0.00 46 1012.5
20260509041210 56 141 2.0 2.0 0.00 0.00 0.00 46 1012.5
20260509040628 56 141 2.0 2.0 0.00 0.00 0.00 46 1012.5
20260509035414 56 0 0.0 2.0 0.00 0.00 0.00 46 1012.5
20260509034844 56 0 0.0 2.0 0.00 0.00 0.00 46 1012.5
20260509033926 56 105 1.0 2.0 0.00 0.00 0.00 45 1012.5
20260509033318 56 105 1.0 2.0 0.00 0.00 0.00 45 1012.5
20260509031510 56 0 0.0 2.0 0.00 0.00 0.00 51 1012.5
20260509030315 56 0 0.0 2.0 0.00 0.00 0.00 51 1012.5
20260509025711 56 107 1.0 2.0 0.00 0.00 0.00 48 1012.5
20260509025140 56 107 1.0 2.0 0.00 0.00 0.00 48 1012.5
20260509024550 56 107 1.0 2.0 0.00 0.00 0.00 48 1012.5
20260509023918 56 153 1.0 1.0 0.00 0.00 0.00 50 1012.8
20260509023313 56 153 1.0 1.0 0.00 0.00 0.00 50 1012.8
20260509022717 56 0 0.0 3.0 0.00 0.00 0.00 50 1012.8
20260509021510 55 150 1.0 2.0 0.00 0.00 0.00 51 1012.8
20260509020909 55 150 1.0 2.0 0.00 0.00 0.00 51 1012.8
20260509020312 55 150 1.0 2.0 0.00 0.00 0.00 51 1012.8